Temp
-13 -13 -13 -13 -13 -13 -13 -13 -13 -13 -13 -13 -13 -13 -13 -13 -13 -13 -13 -12 -12 -12 -12 -12 -12 -12 -12 -12 -12 -12 -12 -12 -12 -12 -12 -12 -12 -12 -12 -12 -12 -12 -12 -12 -12 -12 -12 -12 -12 -12 -12 -11
-13 -13 -13 -13 -13 -13 -13 -13 -13 -13 -13 -13 -13 -13 -13 -13 -13 -13 -13 -13 -13 -13 -13 -13 -12 -12 -12 -12 -12 -12 -12 -12 -12 -12 -12 -12 -12 -12 -12 -12 -12 -12 -12 -12 -12 -12 -12 -12 -12 -12 -12 -12
-13 -13 -13 -13 -13 -13 -13 -13 -13 -13 -13 -13 -13 -13 -13 -13 -13 -13 -13 -13 -13 -13 -13 -13 -13 -13 -13 -13 -12 -12 -12 -12 -12 -12 -12 -12 -12 -12 -12 -12 -12 -12 -12 -12 -12 -12 -12 -12 -12 -12 -12 -12
-14 -14 -14 -14 -14 -14 -14 -14 -14 -14 -14 -14 -13 -13 -13 -13 -13 -13 -13 -13 -13 -13 -13 -13 -13 -13 -13 -13 -13 -13 -13 -13 -12 -12 -12 -13 -13 -13 -12 -12 -12 -12 -12 -12 -12 -12 -12 -12 -12 -12 -12 -12
-14 -14 -14 -14 -14 -14 -14 -14 -14 -14 -14 -14 -14 -14 -14 -14 -14 -14 -13 -13 -13 -13 -13 -13 -13 -13 -13 -13 -13 -13 -13 -13 -13 -13 -13 -13 -13 -13 -13 -13 -13 -13 -13 -13 -12 -12 -12 -12 -12 -12 -12 -12
-14 -14 -14 -14 -14 -14 -14 -14 -14 -14 -14 -14 -14 -14 -14 -14 -14 -14 -14 -14 -14 -14 -14 -14 -13 -13 -13 -13 -13 -13 -13 -13 -13 -13 -13 -13 -13 -13 -13 -13 -13 -13 -13 -13 -13 -13 -13 -13 -12 -12 -12 -12
-14 -14 -14 -14 -14 -14 -14 -14 -14 -14 -14 -14 -14 -14 -14 -14 -14 -14 -14 -14 -14 -14 -14 -14 -14 -14 -14 -14 -14 -13 -13 -13 -13 -13 -13 -13 -13 -13 -13 -13 -13 -13 -13 -13 -13 -13 -13 -13 -13 -13 -13 -13
-14 -14 -14 -14 -14 -14 -14 -14 -14 -14 -14 -14 -14 -14 -14 -14 -14 -14 -14 -14 -14 -14 -14 -14 -14 -14 -14 -14 -14 -14 -14 -14 -13 -13 -13 -13 -13 -13 -13 -13 -13 -13 -13 -13 -13 -13 -13 -13 -13 -13 -13 -13
-14 -14 -14 -14 -14 -14 -14 -14 -14 -14 -14 -14 -14 -14 -14 -14 -14 -14 -14 -14 -14 -14 -14 -14 -14 -14 -14 -14 -14 -14 -14 -14 -14 -14 -14 -14 -13 -13 -13 -13 -13 -13 -13 -13 -13 -13 -13 -13 -13 -13 -13 -13
-15 -15 -15 -15 -15 -15 -15 -15 -15 -15 -15 -15 -15 -15 -15 -15 -15 -15 -15 -15 -15 -15 -15 -14 -14 -14 -14 -14 -14 -14 -14 -14 -14 -14 -14 -14 -14 -14 -14 -14 -14 -14 -14 -14 -14 -14 -14 -14 -14 -14 -14 -14
-15 -15 -15 -15 -15 -15 -15 -15 -15 -15 -15 -15 -15 -15 -15 -15 -15 -15 -15 -15 -15 -15 -15 -15 -15 -15 -15 -15 -15 -15 -15 -15 -14 -14 -14 -14 -14 -14 -14 -14 -14 -14 -14 -14 -14 -14 -14 -14 -14 -14 -14 -14
-15 -15 -16 -16 -16 -16 -16 -16 -16 -16 -16 -16 -16 -16 -16 -16 -16 -16 -16 -16 -16 -16 -16 -16 -16 -16 -16 -16 -16 -15 -15 -15 -15 -15 -15 -15 -15 -15 -15 -15 -15 -14 -14 -14 -14 -14 -14 -14 -14 -14 -14 -14
-16 -16 -16 -16 -17 -17 -17 -17 -17 -17 -17 -17 -17 -17 -17 -17 -17 -17 -17 -17 -17 -17 -17 -17 -17 -17 -17 -17 -17 -17 -16 -16 -16 -16 -16 -16 -16 -15 -15 -15 -15 -15 -15 -15 -15 -15 -15 -14 -14 -14 -14 -14
-17 -17 -17 -17 -17 -18 -18 -18 -18 -18 -18 -18 -18 -18 -18 -18 -18 -18 -18 -18 -18 -18 -18 -18 -18 -18 -18 -18 -18 -18 -18 -17 -17 -17 -17 -17 -17 -17 -16 -16 -16 -16 -16 -15 -15 -15 -15 -15 -15 -15 -15 -15
-18 -18 -18 -18 -18 -18 -18 -18 -18 -18 -18 -18 -18 -19 -19 -19 -19 -19 -19 -19 -19 -19 -19 -19 -19 -19 -19 -18 -18 -18 -18 -18 -18 -18 -18 -18 -18 -18 -18 -18 -17 -17 -17 -17 -16 -16 -16 -16 -15 -15 -15 -15
-18 -18 -18 -18 -18 -18 -18 -18 -19 -19 -19 -19 -19 -19 -19 -19 -19 -19 -19 -19 -19 -19 -19 -19 -19 -19 -19 -19 -19 -19 -19 -19 -19 -19 -19 -19 -19 -19 -19 -19 -19 -19 -18 -18 -18 -18 -17 -17 -17 -16 -16 -16
-18 -18 -18 -18 -19 -19 -19 -19 -19 -19 -19 -19 -19 -19 -19 -19 -19 -19 -19 -19 -19 -19 -19 -19 -19 -19 -19 -19 -19 -19 -19 -19 -19 -19 -19 -19 -19 -19 -19 -19 -19 -19 -19 -19 -19 -19 -19 -18 -18 -18 -17 -17
-19 -19 -19 -19 -19 -19 -19 -19 -19 -19 -19 -19 -19 -19 -19 -19 -19 -19 -19 -19 -19 -19 -19 -19 -19 -19 -20 -20 -20 -20 -20 -20 -20 -20 -20 -20 -20 -20 -20 -20 -20 -20 -20 -20 -20 -20 -20 -20 -19 -19 -19 -19
-19 -19 -19 -19 -19 -19 -19 -19 -19 -19 -19 -19 -19 -19 -19 -19 -19 -19 -19 -19 -19 -20 -20 -20 -20 -20 -20 -20 -20 -20 -20 -20 -20 -20 -20 -20 -20 -20 -20 -20 -20 -20 -20 -20 -20 -20 -20 -20 -20 -20 -20 -20
-19 -19 -19 -19 -19 -19 -19 -19 -19 -19 -19 -19 -19 -19 -19 -20 -20 -20 -20 -20 -20 -20 -20 -20 -20 -20 -20 -20 -20 -20 -20 -20 -20 -20 -20 -21 -21 -21 -21 -21 -21 -21 -21 -21 -21 -21 -21 -21 -21 -21 -21 -21
-19 -19 -19 -19 -19 -19 -19 -19 -19 -19 -20 -20 -20 -20 -20 -20 -20 -20 -20 -20 -20 -20 -20 -20 -20 -20 -20 -21 -21 -21 -21 -21 -21 -21 -21 -21 -21 -21 -21 -21 -21 -21 -21 -21 -21 -21 -21 -21 -21 -21 -21 -21
-19 -19 -19 -19 -19 -19 -20 -20 -20 -20 -20 -20 -20 -20 -20 -20 -20 -20 -20 -21 -21 -21 -21 -21 -21 -21 -21 -21 -21 -21 -21 -21 -21 -21 -21 -21 -21 -21 -21 -21 -21 -21 -21 -21 -21 -21 -21 -21 -21 -21 -21 -21
-19 -19 -19 -19 -20 -20 -20 -20 -20 -20 -20 -20 -20 -20 -21 -21 -21 -21 -21 -21 -21 -21 -21 -21 -21 -21 -21 -21 -21 -21 -21 -21 -21 -21 -22 -22 -22 -22 -22 -22 -22 -22 -22 -22 -22 -22 -22 -22 -22 -22 -22 -22
-20 -20 -20 -20 -20 -20 -20 -20 -20 -20 -20 -21 -21 -21 -21 -21 -21 -21 -21 -21 -21 -21 -21 -21 -21 -22 -22 -22 -22 -22 -22 -22 -22 -22 -22 -22 -22 -22 -22 -22 -22 -22 -22 -22 -22 -22 -22 -22 -22 -22 -22 -22
-20 -20 -20 -20 -20 -20 -20 -21 -21 -21 -21 -21 -21 -21 -21 -21 -21 -22 -22 -22 -22 -22 -22 -22 -22 -22 -22 -22 -22 -22 -22 -22 -22 -22 -22 -22 -22 -22 -22 -22 -22 -22 -22 -22 -22 -22 -23 -23 -23 -23 -22 -22
-20 -20 -20 -21 -21 -21 -21 -21 -21 -21 -21 -21 -21 -21 -22 -22 -22 -22 -22 -22 -22 -22 -22 -22 -22 -22 -22 -22 -22 -22 -22 -22 -22 -22 -22 -22 -22 -22 -23 -23 -23 -23 -23 -23 -23 -23 -23 -23 -23 -23 -23 -23
-21 -21 -21 -21 -21 -21 -21 -21 -22 -22 -22 -22 -22 -22 -22 -22 -22 -22 -22 -22 -22 -22 -23 -23 -23 -23 -23 -23 -23 -23 -23 -23 -23 -23 -23 -23 -23 -23 -23 -23 -23 -23 -23 -23 -23 -23 -23 -23 -23 -23 -23 -23
-21 -21 -21 -21 -21 -21 -22 -22 -22 -22 -22 -22 -22 -22 -22 -22 -22 -22 -23 -23 -23 -23 -23 -23 -23 -23 -23 -23 -23 -23 -23 -23 -23 -23 -23 -23 -23 -23 -23 -23 -23 -23 -24 -24 -23 -23 -23 -23 -23 -24 -24 -24
-21 -21 -21 -22 -22 -22 -22 -22 -22 -22 -22 -22 -22 -23 -23 -23 -23 -23 -23 -23 -23 -23 -23 -23 -23 -23 -23 -23 -23 -23 -23 -23 -24 -24 -24 -23 -23 -24 -24 -24 -24 -24 -24 -24 -24 -24 -24 -24 -24 -24 -24 -24
-21 -22 -22 -22 -22 -22 -22 -22 -23 -23 -23 -22 -23 -23 -23 -23 -23 -23 -23 -23 -23 -23 -23 -23 -24 -24 -24 -24 -24 -24 -24 -24 -24 -24 -24 -24 -24 -24 -24 -24 -24 -24 -24 -24 -24 -25 -25 -25 -24 -24 -24 -24
-22 -22 -22 -22 -22 -22 -23 -23 -23 -23 -23 -23 -23 -23 -23 -23 -23 -23 -23 -23 -24 -24 -24 -24 -24 -24 -24 -24 -24 -24 -24 -24 -24 -24 -24 -24 -24 -24 -24 -25 -25 -25 -25 -25 -25 -25 -25 -25 -25 -25 -25 -25
Height
5799 5799 5798 5798 5797 5797 5796 5796 5796 5795 5795 5794 5793 5792 5792 5791 5791 5790 5790 5789 5789 5788 5788 5788 5788 5788 5788 5787 5787 5787 5788 5788 5788 5788 5788 5788 5787 5787 5787 5788 5789 5789 5790 5790 5791 5791 5792 5792 5792 5793 5794 5795
5795 5794 5794 5793 5792 5792 5791 5791 5790 5790 5789 5789 5788 5788 5787 5786 5785 5785 5784 5784 5783 5783 5783 5782 5782 5782 5782 5782 5782 5782 5782 5782 5782 5782 5782 5782 5782 5781 5781 5781 5782 5783 5783 5784 5784 5785 5785 5786 5786 5787 5788 5788
5790 5789 5789 5788 5788 5787 5786 5785 5785 5784 5784 5783 5783 5782 5781 5781 5780 5779 5779 5778 5778 5777 5777 5776 5776 5776 5776 5776 5776 5776 5776 5776 5776 5776 5776 5776 5776 5776 5775 5775 5775 5776 5777 5777 5778 5778 5778 5779 5780 5780 5781 5782
5785 5784 5784 5783 5782 5782 5781 5780 5779 5779 5778 5777 5777 5776 5776 5775 5774 5774 5773 5772 5772 5771 5771 5770 5770 5770 5769 5769 5769 5769 5769 5769 5769 5769 5769 5770 5770 5770 5769 5769 5769 5769 5770 5770 5771 5771 5772 5772 5772 5773 5774 5774
5780 5779 5779 5778 5777 5776 5775 5774 5773 5773 5772 5771 5771 5770 5769 5769 5768 5768 5767 5766 5766 5765 5765 5764 5763 5763 5763 5762 5762 5762 5762 5762 5762 5762 5763 5763 5763 5763 5763 5763 5763 5763 5763 5763 5764 5764 5765 5765 5766 5766 5766 5767
5775 5774 5773 5772 5771 5770 5769 5768 5767 5767 5766 5765 5764 5763 5763 5762 5761 5761 5760 5760 5759 5759 5758 5758 5757 5757 5756 5755 5755 5755 5754 5754 5754 5755 5755 5755 5756 5756 5756 5756 5756 5756 5756 5756 5757 5757 5758 5758 5759 5759 5759 5760
5769 5768 5767 5767 5766 5765 5764 5763 5762 5760 5759 5759 5758 5757 5756 5755 5754 5754 5753 5753 5752 5751 5751 5750 5750 5749 5749 5748 5748 5748 5747 5747 5747 5747 5747 5747 5747 5748 5748 5748 5749 5749 5749 5749 5749 5749 5750 5750 5751 5752 5752 5753
5763 5762 5761 5760 5759 5758 5757 5756 5755 5754 5753 5752 5751 5750 5749 5748 5747 5746 5746 5745 5744 5744 5743 5742 5742 5741 5741 5740 5740 5740 5739 5739 5739 5739 5739 5739 5739 5739 5740 5740 5740 5741 5741 5741 5741 5741 5741 5742 5743 5743 5744 5745
5757 5756 5755 5754 5753 5752 5751 5750 5749 5748 5747 5746 5744 5743 5742 5741 5740 5739 5738 5737 5736 5735 5735 5734 5734 5733 5732 5732 5731 5731 5731 5731 5731 5731 5731 5731 5731 5731 5731 5731 5731 5732 5732 5732 5733 5733 5733 5733 5734 5735 5735 5736
5751 5750 5748 5747 5746 5745 5744 5742 5741 5740 5739 5738 5737 5736 5735 5734 5733 5731 5730 5729 5728 5727 5726 5725 5725 5724 5724 5723 5723 5722 5722 5722 5722 5721 5722 5722 5722 5722 5722 5722 5722 5722 5723 5723 5724 5724 5724 5724 5725 5725 5726 5727
5745 5743 5742 5740 5739 5737 5736 5735 5733 5732 5731 5730 5729 5728 5727 5726 5724 5723 5722 5721 5720 5719 5718 5717 5716 5715 5715 5714 5714 5713 5713 5712 5712 5712 5712 5712 5712 5712 5712 5712 5712 5713 5713 5713 5714 5714 5715 5715 5715 5716 5717 5718
5738 5737 5735 5734 5732 5731 5729 5728 5726 5725 5724 5723 5721 5720 5719 5718 5717 5716 5714 5713 5712 5711 5710 5709 5708 5707 5706 5705 5704 5704 5703 5703 5702 5702 5702 5702 5702 5702 5702 5702 5702 5702 5703 5703 5704 5704 5705 5705 5706 5706 5707 5708
5732 5731 5729 5728 5726 5725 5723 5722 5720 5719 5718 5716 5715 5714 5712 5711 5710 5709 5708 5706 5705 5704 5703 5701 5700 5699 5698 5697 5696 5695 5694 5694 5693 5692 5692 5691 5691 5691 5691 5691 5691 5692 5692 5693 5693 5694 5694 5695 5696 5696 5697 5698
5726 5725 5723 5722 5721 5719 5718 5717 5715 5714 5713 5711 5710 5709 5707 5706 5704 5703 5702 5700 5699 5698 5696 5695 5694 5692 5691 5690 5689 5688 5687 5686 5685 5684 5683 5682 5682 5681 5681 5680 5680 5680 5681 5681 5682 5682 5683 5684 5685 5686 5687 5687
5722 5720 5719 5718 5716 5715 5713 5712 5711 5709 5708 5706 5705 5703 5702 5700 5699 5698 5696 5695 5693 5692 5691 5689 5688 5686 5685 5684 5682 5681 5680 5679 5677 5676 5676 5674 5673 5673 5672 5671 5670 5670 5670 5670 5670 5670 5671 5672 5673 5674 5675 5676
5718 5717 5715 5714 5712 5711 5709 5708 5706 5705 5703 5702 5700 5698 5696 5695 5693 5692 5690 5689 5687 5686 5685 5683 5682 5680 5679 5677 5676 5675 5673 5672 5671 5669 5668 5667 5666 5665 5664 5663 5662 5661 5660 5660 5659 5659 5659 5660 5661 5661 5662 5664
5714 5713 5711 5710 5708 5707 5705 5703 5702 5700 5698 5697 5695 5693 5691 5689 5688 5686 5684 5683 5681 5679 5678 5676 5675 5673 5672 5670 5669 5668 5666 5665 5663 5662 5661 5660 5658 5657 5656 5655 5654 5653 5652 5651 5650 5650 5649 5649 5649 5649 5650 5651
5710 5709 5707 5706 5704 5702 5700 5698 5696 5695 5693 5691 5689 5687 5686 5684 5682 5680 5678 5677 5675 5673 5671 5670 5668 5666 5664 5663 5661 5660 5658 5657 5656 5654 5653 5652 5651 5649 5648 5647 5646 5645 5644 5642 5642 5641 5640 5640 5639 5639 5639 5639
5705 5704 5702 5701 5699 5697 5695 5693 5691 5689 5687 5685 5684 5682 5679 5678 5676 5674 5672 5670 5668 5666 5665 5663 5661 5659 5657 5656 5654 5652 5651 5649 5648 5646 5645 5644 5643 5641 5640 5639 5638 5637 5636 5634 5633 5632 5631 5630 5630 5630 5629 5629
5700 5699 5697 5695 5693 5691 5689 5687 5685 5683 5681 5679 5677 5675 5673 5671 5669 5667 5665 5663 5661 5659 5657 5655 5654 5652 5650 5648 5647 5645 5643 5642 5640 5638 5637 5636 5635 5633 5632 5631 5630 5628 5627 5626 5625 5623 5622 5621 5621 5620 5620 5620
5695 5693 5691 5690 5688 5685 5683 5681 5679 5677 5675 5673 5671 5669 5667 5665 5662 5660 5658 5656 5654 5652 5650 5648 5646 5644 5642 5640 5639 5637 5635 5634 5632 5630 5629 5627 5626 5625 5623 5623 5621 5620 5619 5618 5616 5615 5613 5612 5611 5611 5611 5610
5690 5688 5686 5684 5682 5679 5677 5675 5673 5671 5669 5666 5664 5662 5660 5658 5655 5653 5651 5649 5647 5645 5642 5640 5639 5637 5634 5633 5631 5629 5627 5626 5624 5622 5620 5619 5618 5616 5614 5614 5613 5611 5610 5609 5607 5606 5604 5602 5602 5601 5601 5601
5684 5682 5680 5678 5676 5673 5671 5669 5666 5664 5662 5660 5658 5655 5653 5651 5648 5646 5644 5641 5639 5637 5635 5633 5631 5629 5627 5625 5623 5621 5619 5617 5616 5614 5612 5610 5609 5608 5606 5604 5604 5602 5601 5600 5598 5596 5595 5592 5591 5591 5591 5591
5678 5676 5674 5671 5669 5667 5664 5662 5659 5657 5655 5653 5651 5648 5646 5644 5641 5639 5637 5634 5632 5630 5628 5625 5623 5621 5619 5617 5615 5613 5611 5609 5607 5605 5603 5601 5599 5598 5596 5595 5594 5592 5591 5590 5588 5587 5585 5583 5581 5581 5580 5580
5671 5669 5666 5664 5662 5660 5657 5654 5652 5650 5648 5645 5643 5641 5638 5636 5634 5631 5629 5627 5624 5622 5620 5617 5615 5613 5611 5609 5607 5604 5602 5600 5598 5596 5594 5592 5590 5589 5587 5585 5584 5582 5580 5579 5578 5577 5575 5573 5571 5571 5570 5569
5664 5661 5659 5656 5654 5651 5649 5646 5644 5642 5639 5637 5635 5632 5630 5627 5625 5623 5621 5618 5616 5613 5611 5609 5606 5604 5602 5600 5598 5595 5593 5591 5589 5587 5585 5583 5581 5580 5578 5576 5574 5572 5570 5568 5567 5566 5565 5563 5560 5560 5560 5559
5656 5654 5651 5648 5646 5643 5641 5638 5636 5633 5631 5628 5626 5624 5621 5619 5616 5614 5612 5609 5607 5604 5601 5599 5597 5595 5593 5590 5588 5586 5584 5582 5580 5578 5576 5574 5572 5570 5568 5566 5565 5563 5559 5557 5556 5554 5553 5552 5550 5549 5548 5549
5649 5646 5643 5641 5638 5635 5633 5630 5628 5625 5622 5620 5618 5615 5612 5610 5607 5605 5602 5600 5598 5595 5592 5590 5587 5585 5583 5581 5579 5576 5574 5573 5570 5568 5566 5564 5562 5559 5558 5556 5554 5553 5550 5547 5545 5543 5542 5540 5539 5538 5535 5537
5641 5639 5636 5633 5630 5628 5625 5623 5620 5617 5614 5612 5610 5607 5604 5601 5599 5596 5594 5591 5588 5586 5583 5580 5578 5575 5573 5571 5569 5567 5564 5562 5560 5558 5555 5553 5551 5549 5547 5544 5542 5541 5540 5537 5534 5531 5530 5528 5527 5526 5524 5524
5634 5631 5629 5626 5623 5620 5618 5615 5612 5609 5607 5605 5602 5599 5596 5593 5590 5588 5585 5582 5580 5577 5574 5571 5568 5565 5563 5561 5558 5556 5554 5551 5549 5547 5545 5542 5540 5538 5536 5533 5531 5529 5528 5526 5524 5521 5518 5516 5514 5513 5512 5510
5627 5625 5622 5618 5615 5613 5610 5607 5604 5601 5598 5597 5595 5591 5588 5585 5582 5579 5577 5574 5571 5568 5565 5562 5559 5556 5553 5551 5548 5546 5544 5541 5539 5537 5535 5532 5529 5527 5525 5522 5520 5517 5515 5514 5512 5510 5508 5505 5502 5500 5499 5497
Wind_Speed
38 38 39 40 40 41 42 42 43 43 44 45 45 46 47 47 48 49 49 50 50 51 51 52 52 53 53 54 54 54 54 54 54 54 54 55 55 56 56 55 55 55 55 55 55 55 55 55 55 55 54 54
40 40 41 41 42 43 43 44 45 45 46 46 47 48 48 49 50 50 51 51 52 53 53 53 54 54 54 55 55 55 56 56 56 56 56 56 56 57 57 57 57 56 56 56 56 56 56 57 57 57 57 56
42 42 43 44 44 45 46 47 47 48 48 49 49 50 51 51 52 53 53 54 54 55 55 56 56 56 57 57 57 57 57 58 58 58 58 57 58 58 58 58 59 58 58 58 58 58 58 58 58 58 59 59
44 45 46 47 47 48 49 49 50 51 51 52 52 53 53 54 55 55 56 56 57 58 58 59 59 59 59 60 60 60 60 60 60 60 60 60 60 60 60 60 60 60 60 60 59 59 59 59 59 60 60 60
47 48 49 49 50 51 52 52 53 54 54 55 55 56 56 57 57 58 58 59 60 60 61 61 62 62 63 63 63 63 63 63 63 63 63 63 63 63 63 63 63 63 62 62 62 62 61 61 61 61 61 61
49 50 51 52 53 53 54 55 56 56 57 58 58 59 59 60 60 60 61 61 62 63 63 64 64 65 65 66 66 66 67 67 67 67 66 66 66 66 66 66 65 65 65 65 64 64 64 64 63 63 63 63
51 52 53 54 54 55 56 57 57 58 59 59 60 61 61 62 62 63 63 64 64 65 65 66 66 67 67 68 68 69 69 69 70 70 70 70 70 69 69 69 69 69 69 68 68 67 67 67 66 66 66 66
53 54 54 55 56 56 57 58 58 59 60 61 61 62 63 63 64 65 65 66 66 67 67 68 68 69 69 70 70 71 71 71 72 72 72 72 73 72 72 72 72 72 72 72 72 71 71 70 70 69 69 68
54 55 55 56 57 57 58 58 59 60 61 61 62 63 64 64 65 66 66 67 67 68 69 69 70 70 71 71 72 72 73 73 73 74 74 75 75 75 75 75 75 75 75 75 75 75 75 74 74 73 73 72
55 56 56 57 58 58 59 60 60 61 62 62 63 64 64 65 66 66 67 68 68 69 70 70 71 71 72 73 73 74 74 75 75 75 76 76 76 77 77 77 77 77 77 77 77 77 77 78 77 77 76 76
56 56 57 58 58 59 60 60 61 61 62 63 63 64 64 65 65 66 67 68 68 69 70 71 71 72 73 73 74 75 75 76 76 77 77 77 78 78 78 79 79 79 80 80 80 80 80 80 80 80 80 79
55 55 56 56 56 57 57 58 58 59 60 60 61 61 62 63 63 64 65 66 67 68 68 69 70 71 72 72 73 74 75 76 77 77 78 78 79 79 80 80 81 81 81 81 82 82 82 82 83 83 83 83
51 51 51 51 51 51 52 52 53 53 54 54 55 55 56 57 58 59 60 61 62 63 64 65 66 67 68 69 70 71 72 73 74 76 77 78 79 79 80 81 82 82 83 83 83 83 84 84 84 85 85 85
44 44 44 44 44 44 45 45 45 46 47 47 48 49 49 50 51 52 53 54 55 56 57 58 60 61 63 64 65 66 68 69 70 71 73 74 75 77 78 79 80 81 83 83 84 85 85 86 86 86 86 87
38 39 39 39 40 40 41 42 42 43 44 45 45 46 47 48 49 49 50 51 51 52 53 54 55 56 57 58 59 61 62 63 65 66 67 68 70 71 73 75 76 78 79 81 82 84 85 86 87 87 88 88
37 38 38 39 40 41 42 43 44 45 46 47 47 48 49 50 50 51 52 52 53 53 53 54 54 55 55 56 57 57 58 59 60 61 62 63 64 66 67 68 70 72 74 75 77 79 81 83 85 86 88 89
39 40 41 42 43 43 44 45 46 47 48 48 49 50 51 52 52 53 54 54 55 55 56 56 56 57 57 58 58 58 59 59 60 60 61 61 62 63 64 64 65 66 68 69 71 73 75 77 80 82 84 86
40 41 42 43 44 44 45 46 47 48 48 49 50 51 51 52 53 54 54 55 55 56 56 57 58 58 59 59 60 60 61 61 62 62 62 63 63 64 64 64 65 65 65 66 67 68 70 71 73 76 78 80
41 42 43 43 44 45 46 46 47 48 48 49 50 51 52 52 53 54 55 55 55 56 56 57 57 58 59 59 60 61 61 62 63 64 64 65 65 65 66 66 67 67 67 67 67 67 68 68 69 70 72 74
42 42 43 44 45 45 46 47 48 49 49 50 51 52 53 53 54 55 55 56 56 56 57 57 58 58 59 59 60 61 61 62 63 64 65 66 66 67 68 68 68 69 69 69 70 70 70 70 69 69 70 70
42 43 44 45 46 47 48 48 49 50 51 51 52 53 54 54 55 56 56 57 57 57 58 58 59 59 60 60 61 61 62 62 63 64 65 66 67 68 69 69 70 70 71 71 72 72 72 72 72 72 71 71
44 45 46 47 48 49 49 50 51 52 52 53 54 54 55 56 56 57 57 58 58 59 59 60 60 60 61 61 62 62 62 63 64 64 65 66 67 68 69 69 70 71 72 72 73 73 74 75 75 75 75 75
46 47 48 49 50 51 51 52 53 53 54 54 55 55 56 57 57 58 59 59 60 60 61 61 61 62 62 62 63 63 63 64 64 65 66 67 68 68 69 70 71 72 72 73 73 74 75 76 77 77 77 77
48 49 50 51 52 52 53 54 54 55 55 55 56 56 57 57 58 59 60 60 61 62 62 62 62 63 63 63 64 64 64 65 65 66 67 68 69 70 71 71 72 73 73 74 74 75 75 76 77 78 79 79
51 52 52 53 53 54 54 55 55 56 56 56 57 57 58 58 59 59 60 61 62 62 63 63 63 64 64 64 64 64 64 65 65 66 67 68 70 71 72 73 73 74 75 75 76 76 76 77 78 78 79 80
53 53 54 55 55 56 56 56 57 57 57 57 58 58 58 59 60 60 61 62 62 63 63 64 64 64 65 65 65 65 65 65 66 66 67 69 70 71 72 73 74 75 76 77 77 77 77 78 78 79 79 80
54 55 56 56 57 57 57 57 57 58 58 58 59 59 60 60 61 61 62 62 63 63 64 64 64 65 65 66 66 66 66 66 67 67 68 69 70 71 72 74 75 76 77 78 78 78 79 79 79 80 80 79
55 56 57 57 58 58 58 58 58 59 59 60 60 60 61 61 62 62 63 63 63 64 64 64 65 65 66 66 67 67 68 68 68 68 69 69 70 72 73 74 75 75 77 78 79 79 79 80 80 80 81 80
56 57 58 58 58 59 59 59 59 60 61 61 61 61 62 62 62 63 63 64 64 64 65 65 66 66 66 67 67 68 69 69 69 70 70 71 72 73 74 75 75 76 76 77 78 79 80 80 81 81 82 82
56 57 57 58 59 59 59 60 61 62 62 62 62 62 62 63 63 63 64 64 64 65 65 66 66 67 67 68 68 69 69 70 70 71 72 72 73 74 75 76 76 77 77 77 78 79 79 81 81 82 83 84
56 56 57 58 59 59 60 61 62 63 63 63 62 62 63 63 63 63 64 64 64 65 65 66 66 67 67 68 69 69 70 70 71 72 72 73 74 75 76 76 77 77 78 78 78 79 79 80 81 82 83 85
Wind_Direction
270 270 270 270 270 270 269 269 269 268 268 268 268 269 269 269 269 269 270 270 269 269 269 269 269 269 268 268 268 268 268 268 267 266 266 265 265 265 265 265 264 264 264 264 264 264 264 264 263 263 263 262
270 270 270 270 270 270 271 270 270 270 270 269 269 269 269 269 270 270 270 270 270 270 270 269 269 269 269 269 268 268 268 268 268 267 267 266 266 266 265 265 264 263 262 262 263 263 262 262 262 262 262 261
271 272 272 272 273 273 273 273 273 272 272 272 271 271 271 270 270 271 271 270 270 270 270 270 270 269 269 269 268 268 268 268 268 268 267 267 267 266 266 265 265 264 263 262 261 261 261 261 261 261 261 261
275 275 275 275 275 275 275 275 275 274 274 274 273 273 272 272 272 272 272 271 271 271 271 271 271 270 270 270 269 269 268 268 267 267 267 267 267 267 266 266 266 265 264 263 262 261 260 260 260 260 259 259
276 276 277 277 277 276 276 276 276 275 275 275 275 274 274 273 273 273 272 272 272 272 272 272 271 271 271 271 270 270 269 269 268 268 267 267 267 267 266 266 266 266 265 265 264 262 261 260 259 258 258 258
278 277 277 277 277 277 277 277 277 277 276 276 276 276 275 275 275 274 274 273 273 273 273 272 272 272 272 271 271 271 271 270 270 269 268 268 267 267 266 266 266 266 266 265 265 264 263 262 260 259 258 258
278 278 278 278 277 277 277 277 277 277 277 277 277 277 277 276 276 276 275 275 274 274 274 273 273 272 272 271 271 271 270 270 270 270 269 269 268 267 267 266 266 266 265 265 265 264 264 263 262 261 260 259
279 279 279 279 279 278 278 278 278 278 278 278 277 277 277 277 277 277 276 276 276 275 275 274 274 273 273 272 272 271 271 270 270 269 269 269 268 268 267 267 266 266 265 265 265 264 264 263 263 262 261 260
281 281 281 281 281 280 280 280 280 279 279 279 279 278 278 278 278 277 277 277 277 276 276 275 275 274 274 273 273 273 272 272 271 270 270 269 269 268 268 267 266 266 265 265 264 264 264 263 263 262 261 261
283 283 283 283 283 283 283 282 282 282 281 281 281 280 280 280 279 279 279 278 278 278 277 277 276 276 275 274 274 273 273 273 272 271 271 270 269 269 268 268 267 266 266 265 264 264 263 263 263 262 262 261
285 285 285 285 285 285 285 285 284 284 284 283 283 283 282 282 281 281 281 280 280 279 279 279 278 277 277 276 276 275 274 274 273 272 272 271 270 270 269 268 268 267 266 266 265 264 263 263 262 262 261 261
286 286 286 286 286 286 286 286 286 286 286 286 285 285 285 284 284 283 283 282 282 282 281 281 280 280 279 278 278 277 276 276 275 274 273 272 272 271 270 269 268 268 267 266 265 265 264 263 262 262 261 261
288 288 288 288 288 288 288 288 288 288 288 288 288 287 287 286 286 285 285 284 284 283 283 282 282 281 281 280 280 279 278 277 277 276 275 274 274 273 272 271 270 269 268 267 266 265 264 263 263 262 262 261
291 291 291 291 291 291 291 291 291 291 291 290 290 290 289 289 288 287 287 286 286 285 284 284 283 282 282 281 281 280 279 279 278 277 277 276 275 274 274 273 272 271 270 269 267 266 265 264 263 263 262 261
293 293 293 293 293 293 293 293 292 292 292 292 291 291 290 290 289 289 288 288 287 286 286 285 285 284 283 283 282 281 281 280 279 279 278 277 276 276 275 274 273 273 272 271 269 268 267 266 265 264 263 262
293 293 293 293 292 292 292 292 291 291 291 291 290 290 290 289 289 288 288 287 287 286 286 286 285 284 284 283 283 282 282 281 280 280 279 279 278 277 276 275 274 273 273 272 271 270 269 268 267 265 264 263
292 292 291 291 291 291 291 291 290 290 290 290 289 289 289 288 288 288 287 287 286 286 286 285 285 284 283 283 283 282 282 281 281 280 280 279 279 278 278 277 276 275 274 273 272 271 270 269 268 267 266 265
291 291 291 291 291 291 290 290 290 290 290 290 290 289 289 288 288 288 287 287 286 286 285 285 285 284 284 284 283 283 282 282 281 281 280 280 279 279 279 278 278 277 276 276 274 273 272 270 269 268 267 266
291 291 291 291 291 291 291 291 291 291 290 290 290 289 289 289 288 288 287 287 287 286 286 286 285 285 285 284 284 284 283 283 282 282 281 280 280 279 279 278 278 278 277 277 276 276 275 273 272 271 269 268
292 292 292 292 292 291 291 291 291 291 291 290 290 289 289 289 289 288 288 288 287 287 287 287 286 286 285 285 285 284 284 284 283 282 282 281 280 279 279 278 278 277 277 276 276 276 275 275 274 273 272 271
292 292 292 292 292 292 291 291 291 291 291 290 290 290 289 289 289 289 288 288 288 288 287 287 287 286 286 286 285 285 285 284 284 283 283 282 281 280 279 278 277 277 276 276 275 275 274 274 273 273 272 272
292 292 292 292 292 291 291 291 291 290 290 290 290 290 290 289 289 289 288 288 288 288 287 287 287 286 286 286 285 285 285 284 284 284 283 283 282 281 280 279 278 277 276 275 275 274 274 273 272 272 271 271
291 292 292 292 291 291 291 290 290 290 289 289 289 289 289 289 289 288 288 288 287 287 287 286 286 285 285 285 284 284 284 284 284 284 284 283 283 282 281 280 279 278 277 276 275 275 274 274 273 272 271 271
291 292 292 292 291 291 291 290 290 289 289 289 289 289 289 289 289 288 288 287 287 286 285 285 284 284 284 284 283 283 284 284 284 284 284 284 284 283 283 282 281 280 279 278 276 275 275 274 273 273 272 271
292 292 292 292 292 292 291 291 290 290 290 290 290 290 290 290 289 289 288 287 286 286 285 284 284 283 283 283 283 283 283 284 284 284 284 285 284 284 284 283 282 281 280 279 277 276 275 274 274 273 272 272
292 293 293 293 293 293 292 292 292 292 292 292 292 292 292 291 290 290 289 288 287 286 286 285 284 284 284 284 283 283 283 283 284 284 284 285 285 285 284 283 283 282 281 279 278 277 276 275 274 273 273 273
293 293 294 294 294 294 293 293 293 293 293 293 293 293 293 292 292 291 290 289 289 288 287 286 285 285 285 285 284 284 284 284 284 284 284 285 285 285 284 283 283 282 281 280 279 277 276 275 275 274 274 273
294 294 294 294 294 294 294 294 294 294 294 294 294 294 294 293 292 291 291 290 290 289 288 287 287 286 286 286 285 285 285 284 284 285 285 285 285 285 285 284 283 282 281 280 279 278 277 276 276 275 275 274
294 294 294 295 294 294 294 294 294 295 295 295 295 295 294 293 292 291 291 291 290 290 289 288 288 287 287 287 286 286 286 286 286 286 286 286 286 286 285 285 284 283 281 281 280 279 278 277 276 276 275 275
294 294 294 294 294 294 294 294 294 294 294 294 295 295 294 293 292 291 291 291 290 290 290 290 289 289 288 288 287 287 287 287 287 287 287 287 287 286 286 285 284 283 282 281 281 280 280 279 278 277 276 275
295 295 294 294 293 294 294 294 294 294 294 295 295 295 294 293 292 292 291 291 291 291 291 290 290 289 289 289 288 288 287 287 287 287 287 287 287 286 286 285 284 284 283 282 281 281 280 280 279 278 277 277